Location: Boda
(47.1872°N, 9.5454°E)
Time: 08:16:09
(UTC+00:00)

Cosmos 1674 - Pass Details

Date: 14 May 2021
Orbit: 492 x 517 km, 82.5° (Epoch: 16 June)

Event Time Altitude Azimuth Distance (km) Brightness Sun altitude
Exits shadow 02:06:21 21° 252° (WSW) 1,205 4.1 -14.1°
Maximum altitude 02:07:48 27° 287° (WNW) 1,031 4.0 -13.9°
Drops below altitude 10° 02:11:06 10° 346° (NNW) 1,752 5.9 -13.6°
Sets 02:13:30 0° 359° (N) 2,641 7.1 -13.3°
